User: anonymous   Login
Location: Unspecified
(0.0000°N, 0.0000°E)
Time: 17:16:53
(UTC+02:00)
Language:

H-2A R/B - Orbit

View from above orbital plane
View from above orbital plane
View from above satellite
View from above satellite

Ground track
Ground track

The orbit data is extracted from the following two-line orbital elements,

1 26899U 01038B   17264.36461646 +.00000186 +00000-0 +10995-3 0  9994
2 26899 028.4551 026.0605 7114874 251.9984 024.1995 02.48157695138874
Epoch (UTC): 21 September 2017 08:45:02
Eccentricity: 0.7114874
inclination: 28.4551°
perigee height: 271 km
apogee height: 33063 km
right ascension of ascending node: 26.0605°
argument of perigee: 251.9984°
revolutions per day: 2.48157695
mean anomaly at epoch: 24.1995°
orbit number at epoch: 13887

The dashed part of the orbit path shows where the satellite is in the earth's shadow,  

DLR